Location: Dammartin
(48.9032°N, 1.6195°E)
Time: 08:55:07
(UTC+00:00)

RS-15 - Visible Passes

Search period start: 08 December 2023 00:00
Search period end: 18 December 2023 00:00
Orbit: 1891 x 2154 km, 64.8° (Epoch: 07 December)

Date Brightness Start Highest point End Pass type
(mag) Time Alt. Az. Time Alt. Az. Time Alt. Az.
08 Dec 9.3 00:55:42 26° NE 00:55:42 26° NE 01:00:51 10° ENE visible
08 Dec 8.2 03:03:30 52° N 03:05:54 59° NE 03:16:47 10° ESE visible
08 Dec 8.0 05:11:19 25° NW 05:18:20 55° WSW 05:28:49 10° S visible
08 Dec 9.0 17:27:23 10° SE 17:34:55 19° E 17:37:01 18° E visible
08 Dec 7.9 19:33:05 10° SSW 19:44:50 68° SE 19:44:50 68° SE visible
08 Dec 9.1 21:46:25 10° WSW 21:52:40 34° W 21:52:40 34° W visible
09 Dec 9.7 00:21:32 18° NE 00:21:32 18° NE 00:24:03 10° ENE visible
09 Dec 8.4 02:29:20 52° NNE 02:29:28 52° NNE 02:40:13 10° ESE visible
09 Dec 7.8 04:37:08 36° NW 04:42:30 69° WSW 04:53:18 10° SSE visible
09 Dec 9.0 06:45:53 10° WNW 06:52:29 18° W 06:59:00 10° SW visible
09 Dec 9.2 16:54:45 10° ESE 16:59:38 13° E 17:03:08 12° ENE visible
09 Dec 8.1 18:57:33 10° S 19:09:15 56° ESE 19:10:57 52° E visible
09 Dec 8.5 21:09:46 10° WSW 21:18:48 51° W 21:18:48 51° W visible
09 Dec 10.0 23:26:13 10° WNW 23:47:26 10° ENE 23:26:37 11° WNW visible
10 Dec 8.7 01:55:15 42° NE 01:55:15 42° NE 02:03:30 10° E visible
10 Dec 7.8 04:03:04 52° NW 04:06:34 83° SW 04:17:32 10° SSE visible
10 Dec 8.7 06:10:53 15° WNW 06:17:08 25° W 06:25:14 10° SSW visible
10 Dec 8.3 18:22:20 10° S 18:33:30 45° ESE 18:37:00 37° ENE visible
10 Dec 8.1 20:33:17 10° SW 20:44:50 70° WNW 20:44:50 70° WNW visible
10 Dec 9.6 22:49:16 10° W 23:13:25 - ENE 22:52:39 20° WNW visible
11 Dec 9.2 01:21:14 29° ENE 01:21:14 29° ENE 01:26:42 10° E visible
11 Dec 7.8 03:29:03 72° NNW 03:30:30 83° NE 03:41:31 10° SE visible
11 Dec 8.5 05:36:53 24° WNW 05:41:39 33° WSW 05:50:50 10° SSW visible
11 Dec 8.6 17:47:26 10° SSE 17:57:51 35° ESE 18:02:59 25° ENE visible
11 Dec 8.0 19:57:00 10° SW 20:09:15 83° NW 20:10:48 72° NNE visible
11 Dec 9.2 22:12:19 10° W 22:18:37 31° WNW 22:18:37 31° WNW visible
12 Dec 9.6 00:47:18 18° ENE 00:47:18 18° ENE 00:49:51 10° E visible
12 Dec 8.0 02:55:07 69° ENE 02:55:07 69° ENE 03:05:19 10° SE visible
12 Dec 8.2 05:02:57 36° WNW 05:06:04 42° WSW 05:15:59 10° S visible
12 Dec 8.8 17:12:58 10° SSE 17:22:19 27° ESE 17:28:53 17° ENE visible
12 Dec 7.9 19:20:56 10° SSW 19:33:10 84° SE 19:36:42 54° NE visible
12 Dec 8.8 21:35:25 10° W 21:44:30 42° NW 21:44:30 42° NW visible
12 Dec 10.0 23:52:08 10° WNW 00:13:24 - ENE 23:52:18 10° WNW visible
13 Dec 8.5 02:21:15 47° E 02:21:15 47° E 02:28:55 10° ESE visible
13 Dec 7.9 04:29:04 51° W 04:30:22 54° WSW 04:40:48 10° S visible
13 Dec 9.2 06:36:54 10° WNW 06:39:40 11° W 06:42:40 10° WSW visible
13 Dec 9.1 16:39:06 10° SE 16:46:54 20° E 16:54:31 10° ENE visible
13 Dec 8.0 18:45:07 10° SSW 18:57:11 70° ESE 19:02:30 39° NE visible
13 Dec 8.5 20:58:36 10° WSW 21:10:18 52° NNW 21:10:18 52° NNW visible
13 Dec 9.7 23:15:20 10° WNW 23:39:34 - ENE 23:18:06 18° NW visible
14 Dec 9.1 01:47:24 30° E 01:47:24 30° E 01:52:22 10° ESE visible
14 Dec 7.8 03:55:14 65° SW 03:55:14 65° SW 04:05:19 10° SSE visible
14 Dec 8.9 06:03:04 17° W 06:04:27 17° W 06:10:39 10° SW visible
14 Dec 8.1 18:09:33 10° S 18:21:18 57° ESE 18:28:14 27° NE visible
14 Dec 8.3 20:21:56 10° WSW 20:33:54 60° NW 20:36:02 54° N visible
14 Dec 9.4 22:38:27 10° WNW 22:43:49 26° NW 22:43:49 26° NW visible
15 Dec 9.6 01:13:36 17° E 01:13:36 17° E 01:15:40 10° E visible
15 Dec 8.1 03:21:27 58° SSE 03:21:27 58° SSE 03:29:35 10° SSE visible
15 Dec 8.7 05:29:17 24° W 05:29:17 24° W 05:37:01 10° SSW visible
15 Dec 8.4 17:34:16 10° S 17:45:32 46° ESE 17:53:54 19° NE visible
15 Dec 8.2 19:45:26 10° SW 19:57:35 70° NW 20:01:41 47° NNE visible
15 Dec 9.1 22:01:30 10° W 22:09:28 34° NW 22:09:28 34° NW visible
16 Dec10.100:39:49E00:39:49E00:17:15NWvisible
16 Dec 8.6 02:47:40 40° SE 02:47:40 40° SE 02:53:36 10° SE visible
16 Dec 8.6 04:55:30 30° WSW 04:55:30 30° WSW 05:02:42 10° SSW visible
16 Dec 8.6 16:59:20 10° SSE 17:09:52 36° ESE 17:19:30 12° NE visible
16 Dec 8.1 19:09:07 10° SW 19:21:21 81° NW 19:27:16 37° NE visible
16 Dec 8.8 21:24:32 10° W 21:35:03 41° NNW 21:35:03 41° NNW visible
16 Dec 9.8 23:41:00 10° NW 23:42:50 15° NW 23:42:50 15° NW visible
17 Dec 9.2 02:13:53 25° SE 02:13:53 25° SE 02:17:25 10° SE visible
17 Dec 8.6 04:21:44 33° SW 04:21:44 33° SW 04:27:54 10° S visible
17 Dec 8.9 16:24:48 10° SSE 16:34:19 28° ESE 16:43:34 10° NE visible
17 Dec 8.0 18:33:01 10° SSW 18:45:15 86° SE 18:52:48 28° NE visible
17 Dec 8.6 20:47:38 10° W 20:59:03 46° NNW 21:00:35 44° N visible
17 Dec 9.5 23:04:20 10° WNW 23:08:21 22° NW 23:08:21 22° NW visible
